This is the latest recevied weather packets stored in our database for station/object KD4MBW. If no packets are shown the sender has not sent any weather packets the latest 10 day(s).
| Time | Temp. | Humidity | Pressure | Rain* | Wind** | Luminosity | Snow |
|---|---|---|---|---|---|---|---|
| 1777882202 | 11.67° C | 97% | 1018.2 hPa | 0 mm | - | 0 W/m² | - |
| 1777881898 | 11.11° C | 97% | 1018.5 hPa | 0 mm | - | 0 W/m² | - |
| 1777881589 | 10.56° C | 98% | 1018.5 hPa | 0 mm | - | 0 W/m² | - |
| 1777881286 | 11.11° C | 97% | 1018.2 hPa | 0 mm | - | 0 W/m² | - |
| 1777880983 | 11.11° C | 97% | 1018.4 hPa | 0 mm | - | 0 W/m² | - |
| 1777880681 | 11.11° C | 98% | 1018.5 hPa | 0 mm | - | 0 W/m² | - |
| 1777880379 | 11.11° C | 98% | 1018.5 hPa | 0 mm | - | 0 W/m² | - |
| 1777880078 | 11.11° C | 98% | 1018.5 hPa | 0 mm | - | 0 W/m² | - |
| 1777879776 | 11.11° C | 99% | 1018.5 hPa | 0 mm | - | 0 W/m² | - |
| 1777879473 | 10.56° C | 99% | 1018.6 hPa | 0 mm | - | 0 W/m² | - |
| 1777879169 | 10.56° C | 99% | 1018.5 hPa | 0 mm | - | 0 W/m² | - |
| 1777878866 | 10.56° C | 98% | 1018.4 hPa | 0 mm | - | 0 W/m² | - |
| 1777878564 | 11.11° C | 98% | 1018.4 hPa | 0 mm | - | 0 W/m² | - |
| 1777878260 | 11.11° C | 98% | 1018.6 hPa | 0 mm | - | 0 W/m² | - |
| 1777877956 | 11.11° C | 96% | 1018.6 hPa | 0 mm | - | 0 W/m² | - |
| 1777877653 | 11.67° C | 95% | 1018.8 hPa | 0 mm | - | 0 W/m² | - |
| 1777877350 | 12.22° C | 95% | 1018.6 hPa | 0 mm | - | 0 W/m² | - |
| 1777877048 | 12.22° C | 95% | 1018.6 hPa | 0 mm | - | 0 W/m² | - |
| 1777876745 | 12.22° C | 94% | 1018.7 hPa | 0 mm | - | 0 W/m² | - |
| 1777876443 | 12.78° C | 93% | 1018.8 hPa | 0 mm | - | 0 W/m² | - |
| 1777876138 | 12.78° C | 93% | 1018.7 hPa | 0 mm | - | 0 W/m² | - |
| 1777875834 | 12.22° C | 97% | 1018.9 hPa | 0 mm | - | 0 W/m² | - |
| 1777875525 | 11.67° C | 98% | 1019 hPa | 0 mm | - | 0 W/m² | - |
| 1777875222 | 11.67° C | 96% | 1019.1 hPa | 0 mm | - | 0 W/m² | - |
| 1777874919 | 11.67° C | 96% | 1019.4 hPa | 0 mm | - | 0 W/m² | - |
* Rain latest hour (hover to see other rain measurements)
** Current wind speed in m/s (hover to see current wind gust speed)